Location: Edoum�
(0.9447°N, 10.6482°E)
Time: 01:31:41
(UTC+00:00)

GPS 2-15 Rocket1 - Pass Details

Date: 07 June 2020
Orbit: 624 x 675 km, 19.8° (Epoch: 13 July)

Event Time Altitude Azimuth Distance (km) Brightness Sun altitude
Exits shadow 03:10:20 54° 70° (ENE) 775 3.7 -28.4°
Drops below altitude 10° 03:14:02 10° 69° (ENE) 2,030 6.7 -27.5°
Sets 03:16:26 0° 69° (ENE) 2,948 7.8 -27.0°
